MIDAS 4 DEB, 2009

Orbit data source: Space-Track

MIDAS 4 DEB, 2009 is space debris in LEO originally from a launch on Sat, 21 Oct 1961 UTC launched from the Air Force Western Test Range (AFWTR). Debris objects in space refer to the collection of defunct objects orbiting the Earth. Examples of debris include non-operational satellites, rocket bodies, and fragments generated from explosions, collisions, or faulty payload assembly.

Loading next visibility...
Identifier
2009, 1961-028E
Orbit
LEO
Country
Flag of USUS
Related business
Manufacturer
Unknown
Mission
Spacecraft
Bus & Motor
Unknown
Mass
~10 kg wet, ~10 kg dry
Launch date (UTC)
1961-10-21 (64 years ago)
Launch vehicle
Unknown
Launch site
Air Force Western Test Range (AFWTR)
Object type
Payload
Rocket body
Debris
Shape & HBR
Unknown shape, 1.1 m
Radar Cross Section
Medium (>0.1 m² and <1 m²)

Expand to show TLE details & history
Last TLE update: 3 days ago

TLE from 3 days ago
0 MIDAS 4 DEB
1 02009U 61028E   25306.62861879 -.00000003  00000-0  17659-3 0  9996
2 02009  95.8209 182.3521 0122749 119.5382 241.7772  8.68991080370326
Epoch: 2025-11-02T15:05Z
TLE epoch observation values (Epoch: 2025-11-02T15:05:12.663Z)
Latitude
-0.00003°
Longitude
-86.09227°
Altitude
3,676.866 km
Speed
6.278 km/s
True Right ascension
12h 09m 24s
True Declination
0° 00' 00"
Sunlit
Object was in daylight at epoch
Visualization orbit readout
Latitude
Unknown
Longitude
Unknown
Altitude
Unknown
Speed
Unknown
Apparent Right ascension
Unknown
Apparent Declination
Unknown
Sunlit
N/A
Visualization observer readout
Local Sidereal Time
21:54:06
Azimuth
Unknown
Elevation
Unknown
Doppler factor
Unknown
Orbital elements
Apogee altitude
3,736.048 km
Perigee altitude
3,490.757 km
Semi-major axis
9,991.54 km
Eccentricity
0.01227
Inclination
95.8209°
RAAN
182.3521°
Arg. of periapsis
119.5382°
True anomaly
240.54685°
Mean anomaly
241.7772°
Eccentric anomaly
241.16112°
Mean motion
2.17317 °/min
Orbital period
165.66 mins
BSTAR
0.00017659
Loading maneuver chart data...
Computing Atmospheric mass density...
Loading historical data...
Loading historical data...
Loading historical data...
Loading historical data...
Loading historical data...
Loading historical data...
Loading historical data...

Documentation

Showing up to 5 results
|